Volver al catálogo

DELTA 2 R/B(2)

ActivoGTO
NORAD 25136·ROCKET BODY·🇺🇸 United States

Lanzado Jan 10, 1998 desde Cape Canaveral Space Force Station

Loading…

TLE

EnvejeciendoSource: Space-Track

Época: Sep 14, 2026, 14:04 UTC

1 25136U 98002C   26257.58619440 -.00000064  00000-0  00000-0 0  9996
2 25136  23.4984  76.0399 6983358 336.6824 270.6768  2.19857407230371

Sigue DELTA 2 R/B(2) en tiempo real con AllMySat

Download on the App Store